DAL839 KDFW-KATL

Flight info

Callsign DAL839
Flight time 1h 33m
Altitude 35000
Route TRYTN4 LOOSE MEMFS HUTCC KNSAW RUSSA GLAVN2
Aircraft A21N/M-SDE2E3FGHIRWXY/LB1

Departure

Time 2026-05-05 01:34
Airport Dallas Fort Worth International Airport (KDFW)

Arrival

Time 2026-05-05 03:07
Airport Hartsfield Jackson Atlanta International Airport (KATL)
Time Latitude Longitude Altitude Speed Heading
2026-05-05 01:22 32.89037 -97.03521 590 ft 0 kts 272°
2026-05-05 01:23 32.89037 -97.03520 590 ft 1 kts 272°
2026-05-05 01:24 32.89036 -97.03493 590 ft 2 kts 271°
2026-05-05 01:24 32.89035 -97.03466 590 ft 4 kts 278°
2026-05-05 01:24 32.89028 -97.03441 589 ft 4 kts 330°
2026-05-05 01:24 32.89009 -97.03441 589 ft 4 kts 11°
2026-05-05 01:25 32.88995 -97.03445 589 ft 0 kts 11°
2026-05-05 01:27 32.88996 -97.03444 589 ft 1 kts 11°
2026-05-05 01:28 32.89025 -97.03434 589 ft 7 kts 39°
2026-05-05 01:28 32.89038 -97.03355 589 ft 13 kts 90°
2026-05-05 01:28 32.89096 -97.03316 588 ft 12 kts 355°
2026-05-05 01:28 32.89196 -97.03319 588 ft 16 kts
2026-05-05 01:29 32.89324 -97.03318 589 ft 20 kts
2026-05-05 01:29 32.89477 -97.03318 591 ft 24 kts
2026-05-05 01:29 32.89647 -97.03316 591 ft 25 kts
2026-05-05 01:29 32.89823 -97.03315 591 ft 26 kts
2026-05-05 01:30 32.90004 -97.03314 591 ft 26 kts
2026-05-05 01:30 32.90192 -97.03314 590 ft 27 kts
2026-05-05 01:30 32.90384 -97.03312 590 ft 28 kts
2026-05-05 01:30 32.90583 -97.03311 590 ft 29 kts
2026-05-05 01:31 32.90754 -97.03310 591 ft 17 kts
2026-05-05 01:31 32.90878 -97.03309 591 ft 18 kts 360°
2026-05-05 01:31 32.91004 -97.03294 586 ft 19 kts 22°
2026-05-05 01:31 32.91133 -97.03273 585 ft 19 kts 360°
2026-05-05 01:32 32.91272 -97.03272 587 ft 21 kts
2026-05-05 01:32 32.91419 -97.03272 584 ft 21 kts 360°
2026-05-05 01:32 32.91546 -97.03258 580 ft 15 kts 52°
2026-05-05 01:32 32.91559 -97.03132 583 ft 15 kts 91°
2026-05-05 01:33 32.91556 -97.03008 581 ft 11 kts 110°
2026-05-05 01:33 32.91498 -97.02988 583 ft 11 kts 181°
2026-05-05 01:33 32.91201 -97.02989 582 ft 87 kts 180°
2026-05-05 01:33 32.90289 -97.02994 627 ft 169 kts 180°
2026-05-05 01:34 32.88961 -97.02988 1234 ft 214 kts 179°
2026-05-05 01:34 32.87333 -97.03046 2140 ft 239 kts 183°
2026-05-05 01:34 32.85700 -97.02973 3188 ft 235 kts 172°
2026-05-05 01:34 32.84115 -97.02361 3914 ft 244 kts 163°
2026-05-05 01:35 32.82531 -97.01600 4537 ft 253 kts 163°
2026-05-05 01:35 32.80873 -97.00798 5167 ft 261 kts 163°
2026-05-05 01:35 32.79187 -96.99819 5797 ft 274 kts 150°
2026-05-05 01:35 32.77836 -96.98201 6331 ft 290 kts 125°
2026-05-05 01:36 32.76982 -96.95987 6887 ft 299 kts 112°
2026-05-05 01:36 32.76453 -96.93578 7467 ft 307 kts 97°
2026-05-05 01:36 32.76458 -96.91024 8077 ft 312 kts 87°
2026-05-05 01:36 32.76596 -96.88436 8718 ft 316 kts 86°
2026-05-05 01:37 32.76726 -96.85818 9354 ft 320 kts 87°
2026-05-05 01:37 32.76907 -96.83173 9958 ft 323 kts 79°
2026-05-05 01:37 32.77469 -96.80554 10400 ft 333 kts 71°
2026-05-05 01:37 32.78181 -96.77875 10687 ft 349 kts 70°
2026-05-05 01:38 32.78940 -96.75062 10935 ft 365 kts 70°
2026-05-05 01:38 32.79726 -96.72123 11176 ft 381 kts 70°
2026-05-05 01:38 32.80535 -96.69057 11416 ft 397 kts 71°
2026-05-05 01:38 32.81366 -96.65863 11646 ft 412 kts 71°
2026-05-05 01:39 32.82224 -96.62551 11867 ft 426 kts 71°
2026-05-05 01:39 32.83104 -96.59144 12165 ft 435 kts 71°
2026-05-05 01:39 32.83993 -96.55688 12652 ft 438 kts 71°
2026-05-05 01:39 32.84888 -96.52206 13156 ft 442 kts 71°
2026-05-05 01:40 32.85785 -96.48705 13665 ft 444 kts 71°
2026-05-05 01:40 32.86690 -96.45178 14123 ft 447 kts 71°
2026-05-05 01:40 32.87599 -96.41635 14603 ft 449 kts 70°
2026-05-05 01:40 32.88512 -96.38069 15067 ft 452 kts 70°
2026-05-05 01:41 32.89431 -96.34489 15555 ft 455 kts 70°
2026-05-05 01:41 32.90499 -96.30940 16055 ft 457 kts 66°
2026-05-05 01:41 32.91649 -96.27402 16526 ft 460 kts 65°
2026-05-05 01:41 32.92807 -96.23846 16992 ft 463 kts 65°
2026-05-05 01:42 32.93974 -96.20248 17449 ft 467 kts 65°
2026-05-05 01:42 32.95144 -96.16634 17911 ft 470 kts 65°
2026-05-05 01:42 32.96327 -96.12989 18326 ft 473 kts 65°
2026-05-05 01:42 32.97516 -96.09316 18697 ft 477 kts 65°
2026-05-05 01:43 32.98710 -96.05617 19037 ft 481 kts 65°
2026-05-05 01:43 32.99919 -96.01872 19379 ft 485 kts 64°
2026-05-05 01:43 33.01134 -95.98106 19745 ft 489 kts 64°
2026-05-05 01:43 33.02355 -95.94311 20109 ft 493 kts 64°
2026-05-05 01:44 33.03583 -95.90490 20475 ft 497 kts 64°
2026-05-05 01:44 33.04818 -95.86631 20843 ft 500 kts 64°
2026-05-05 01:44 33.06064 -95.82741 21206 ft 504 kts 64°
2026-05-05 01:44 33.07318 -95.78830 21591 ft 507 kts 64°
2026-05-05 01:45 33.08586 -95.74883 21986 ft 511 kts 64°
2026-05-05 01:45 33.09862 -95.70911 22379 ft 515 kts 64°
2026-05-05 01:45 33.11146 -95.66905 22774 ft 519 kts 64°
2026-05-05 01:45 33.12429 -95.62866 23145 ft 522 kts 64°
2026-05-05 01:46 33.13704 -95.58859 23476 ft 526 kts 64°
2026-05-05 01:46 33.15004 -95.54770 23762 ft 529 kts 64°
2026-05-05 01:46 33.16312 -95.50660 24035 ft 531 kts 63°
2026-05-05 01:46 33.17647 -95.46466 24323 ft 534 kts 63°
2026-05-05 01:47 33.18942 -95.42390 24643 ft 534 kts 63°
2026-05-05 01:47 33.20281 -95.38176 25011 ft 534 kts 63°
2026-05-05 01:47 33.21594 -95.34032 25347 ft 535 kts 63°
2026-05-05 01:47 33.22906 -95.29873 25764 ft 533 kts 63°
2026-05-05 01:48 33.24194 -95.25786 26145 ft 533 kts 63°
2026-05-05 01:48 33.25502 -95.21637 26507 ft 533 kts 63°
2026-05-05 01:48 33.26806 -95.17498 26863 ft 533 kts 62°
2026-05-05 01:48 33.28112 -95.13348 27219 ft 533 kts 62°
2026-05-05 01:49 33.29412 -95.09207 27567 ft 533 kts 62°
2026-05-05 01:49 33.30715 -95.05051 27916 ft 533 kts 62°
2026-05-05 01:49 33.32011 -95.00906 28267 ft 533 kts 62°
2026-05-05 01:49 33.33308 -94.96755 28610 ft 533 kts 62°
2026-05-05 01:50 33.34602 -94.92610 29003 ft 532 kts 61°
2026-05-05 01:50 33.35901 -94.88472 29378 ft 531 kts 61°
2026-05-05 01:50 33.37203 -94.84336 29717 ft 531 kts 60°
2026-05-05 01:50 33.38497 -94.80201 30013 ft 530 kts 60°
2026-05-05 01:51 33.39786 -94.76064 30280 ft 531 kts 60°
2026-05-05 01:51 33.41071 -94.71923 30534 ft 531 kts 60°
2026-05-05 01:51 33.42355 -94.67781 30770 ft 531 kts 60°
2026-05-05 01:51 33.43639 -94.63631 31001 ft 531 kts 60°
2026-05-05 01:52 33.44913 -94.59477 31241 ft 531 kts 60°
2026-05-05 01:52 33.46191 -94.55333 31487 ft 531 kts 60°
2026-05-05 01:52 33.47466 -94.51186 31764 ft 530 kts 60°
2026-05-05 01:52 33.48730 -94.47048 31994 ft 530 kts 60°
2026-05-05 01:53 33.49995 -94.42908 32210 ft 530 kts 60°
2026-05-05 01:53 33.51274 -94.38765 32429 ft 529 kts 59°
2026-05-05 01:53 33.52556 -94.34627 32636 ft 529 kts 59°
2026-05-05 01:53 33.53815 -94.30541 32831 ft 530 kts 59°
2026-05-05 01:54 33.55083 -94.26407 33033 ft 530 kts 59°
2026-05-05 01:54 33.56342 -94.22243 33218 ft 530 kts 60°
2026-05-05 01:54 33.57577 -94.18076 33438 ft 531 kts 60°
2026-05-05 01:54 33.58807 -94.13914 33687 ft 528 kts 59°
2026-05-05 01:55 33.60034 -94.09773 33886 ft 528 kts 59°
2026-05-05 01:55 33.61260 -94.05620 34034 ft 528 kts 59°
2026-05-05 01:55 33.62483 -94.01473 34198 ft 528 kts 59°
2026-05-05 01:55 33.63712 -93.97321 34333 ft 527 kts 59°
2026-05-05 01:56 33.64946 -93.93179 34452 ft 527 kts 59°
2026-05-05 01:56 33.66177 -93.89036 34582 ft 527 kts 59°
2026-05-05 01:56 33.67409 -93.84886 34703 ft 527 kts 59°
2026-05-05 01:56 33.68637 -93.80735 34850 ft 527 kts 59°
2026-05-05 01:57 33.71060 -93.72455 34897 ft 524 kts 59°
2026-05-05 01:57 33.73463 -93.64208 34868 ft 523 kts 59°
2026-05-05 01:58 33.75894 -93.55959 34863 ft 523 kts 59°
2026-05-05 01:58 33.78311 -93.47711 34869 ft 524 kts 59°
2026-05-05 01:59 33.80713 -93.39445 34867 ft 524 kts 59°
2026-05-05 01:59 33.83101 -93.31164 34868 ft 524 kts 60°
2026-05-05 02:00 33.85485 -93.22886 34864 ft 523 kts 59°
2026-05-05 02:00 33.87892 -93.14616 34864 ft 524 kts 59°
2026-05-05 02:01 33.89961 -93.06148 34872 ft 540 kts 71°
2026-05-05 02:01 33.91105 -92.97194 34879 ft 541 kts 72°
2026-05-05 02:02 33.92268 -92.88253 34911 ft 540 kts 71°
2026-05-05 02:02 33.93423 -92.79318 34882 ft 540 kts 71°
2026-05-05 02:03 33.94547 -92.70377 34878 ft 540 kts 71°
2026-05-05 02:03 33.95686 -92.61451 34882 ft 539 kts 71°
2026-05-05 02:04 33.96814 -92.52542 34876 ft 538 kts 71°
2026-05-05 02:04 33.97943 -92.43615 34879 ft 538 kts 71°
2026-05-05 02:05 33.99057 -92.34760 34876 ft 539 kts 71°
2026-05-05 02:05 34.00165 -92.25836 34902 ft 538 kts 71°
2026-05-05 02:06 34.01284 -92.16934 34890 ft 537 kts 71°
2026-05-05 02:06 34.02204 -92.09477 34887 ft 537 kts 71°
2026-05-05 02:07 34.03275 -92.00620 34884 ft 537 kts 71°
2026-05-05 02:07 34.04366 -91.91709 34890 ft 537 kts 71°
2026-05-05 02:08 34.05444 -91.82803 34887 ft 537 kts 71°
2026-05-05 02:08 34.06492 -91.73883 34896 ft 537 kts 71°
2026-05-05 02:09 34.07580 -91.64989 34903 ft 536 kts 71°
2026-05-05 02:09 34.08647 -91.56085 34907 ft 537 kts 71°
2026-05-05 02:10 34.09697 -91.47168 34924 ft 537 kts 71°
2026-05-05 02:10 34.10739 -91.38248 34914 ft 537 kts 71°
2026-05-05 02:11 34.11542 -91.33934 34903 ft 516 kts 58°
2026-05-05 02:11 34.13044 -91.30125 34909 ft 491 kts 44°
2026-05-05 02:11 34.15038 -91.26888 34914 ft 474 kts 36°
2026-05-05 02:11 34.17158 -91.23862 34911 ft 471 kts 34°
2026-05-05 02:12 34.23507 -91.14744 34932 ft 475 kts 36°
2026-05-05 02:13 34.27706 -91.08563 34920 ft 475 kts 36°
2026-05-05 02:13 34.31900 -91.02369 34910 ft 476 kts 36°
2026-05-05 02:14 34.36087 -90.96165 34910 ft 476 kts 36°
2026-05-05 02:14 34.40281 -90.89969 34916 ft 476 kts 36°
2026-05-05 02:15 34.44466 -90.83765 34907 ft 476 kts 36°
2026-05-05 02:15 34.48629 -90.77597 34932 ft 476 kts 36°
2026-05-05 02:16 34.52822 -90.71361 34916 ft 476 kts 36°
2026-05-05 02:16 34.57007 -90.65135 34903 ft 476 kts 36°
2026-05-05 02:17 34.61191 -90.58895 34900 ft 476 kts 36°
2026-05-05 02:17 34.65374 -90.52660 34900 ft 476 kts 36°
2026-05-05 02:18 34.69560 -90.46425 34901 ft 476 kts 36°
2026-05-05 02:18 34.73730 -90.40154 34938 ft 477 kts 36°
2026-05-05 02:19 34.77905 -90.33874 34913 ft 478 kts 36°
2026-05-05 02:19 34.82089 -90.27607 34902 ft 477 kts 36°
2026-05-05 02:20 34.86277 -90.21329 34897 ft 478 kts 36°
2026-05-05 02:20 34.90447 -90.15019 34893 ft 478 kts 36°
2026-05-05 02:21 34.94616 -90.08710 34888 ft 478 kts 36°
2026-05-05 02:21 34.98613 -90.02132 34887 ft 499 kts 47°
2026-05-05 02:21 35.00016 -89.98154 34951 ft 521 kts 59°
2026-05-05 02:22 35.00753 -89.93726 34923 ft 545 kts 76°
2026-05-05 02:22 35.00615 -89.89041 34913 ft 564 kts 92°
2026-05-05 02:22 34.99812 -89.84324 34922 ft 569 kts 97°
2026-05-05 02:23 34.98126 -89.74919 34893 ft 566 kts 95°
2026-05-05 02:23 34.96751 -89.65486 34904 ft 564 kts 93°
2026-05-05 02:24 34.95412 -89.56060 34900 ft 565 kts 94°
2026-05-05 02:24 34.94052 -89.46635 34912 ft 565 kts 94°
2026-05-05 02:25 34.92696 -89.37203 34923 ft 565 kts 94°
2026-05-05 02:25 34.91311 -89.27787 34918 ft 565 kts 94°
2026-05-05 02:26 34.89910 -89.18370 34927 ft 564 kts 94°
2026-05-05 02:26 34.88500 -89.08980 34921 ft 563 kts 94°
2026-05-05 02:27 34.87098 -88.99603 34925 ft 563 kts 94°
2026-05-05 02:27 34.85702 -88.90226 34938 ft 563 kts 94°
2026-05-05 02:28 34.84285 -88.80861 34957 ft 559 kts 94°
2026-05-05 02:28 34.82875 -88.71601 34941 ft 556 kts 94°
2026-05-05 02:29 34.81464 -88.62362 34940 ft 556 kts 94°
2026-05-05 02:29 34.80034 -88.53102 34943 ft 556 kts 94°
2026-05-05 02:30 34.78609 -88.43870 34961 ft 551 kts 95°
2026-05-05 02:30 34.77189 -88.34719 34943 ft 552 kts 95°
2026-05-05 02:31 34.75735 -88.25553 34940 ft 552 kts 95°
2026-05-05 02:31 34.74274 -88.16395 34941 ft 552 kts 95°
2026-05-05 02:32 34.72829 -88.07218 34964 ft 551 kts 95°
2026-05-05 02:32 34.71396 -87.98128 34919 ft 547 kts 95°
2026-05-05 02:33 34.69947 -87.89002 34952 ft 551 kts 95°
2026-05-05 02:33 34.68486 -87.79853 34958 ft 551 kts 95°
2026-05-05 02:34 34.67013 -87.70714 34980 ft 551 kts 95°
2026-05-05 02:34 34.65571 -87.61692 34964 ft 545 kts 96°
2026-05-05 02:35 34.64109 -87.52661 34960 ft 545 kts 96°
2026-05-05 02:35 34.62618 -87.43577 34960 ft 545 kts 96°
2026-05-05 02:36 34.61152 -87.34615 34965 ft 545 kts 96°
2026-05-05 02:36 34.59666 -87.25624 34970 ft 541 kts 96°
2026-05-05 02:37 34.58181 -87.16670 34983 ft 541 kts 96°
2026-05-05 02:37 34.56692 -87.07724 34988 ft 541 kts 96°
2026-05-05 02:38 34.55162 -86.98728 34990 ft 541 kts 97°
2026-05-05 02:38 34.53323 -86.89854 35007 ft 542 kts 103°
2026-05-05 02:39 34.51078 -86.81191 34993 ft 543 kts 104°
2026-05-05 02:39 34.48798 -86.72448 34989 ft 545 kts 103°
2026-05-05 02:40 34.46535 -86.63693 34991 ft 545 kts 104°
2026-05-05 02:40 34.44243 -86.54936 35014 ft 544 kts 104°
2026-05-05 02:41 34.41942 -86.46205 34975 ft 541 kts 104°
2026-05-05 02:41 34.39641 -86.37481 35011 ft 545 kts 104°
2026-05-05 02:42 34.37345 -86.28805 35020 ft 545 kts 104°
2026-05-05 02:42 34.35026 -86.20076 35003 ft 545 kts 104°
2026-05-05 02:43 34.32722 -86.11377 35002 ft 539 kts 104°
2026-05-05 02:43 34.30500 -86.02770 34995 ft 533 kts 104°
2026-05-05 02:44 34.28266 -85.94249 34993 ft 530 kts 104°
2026-05-05 02:44 34.26041 -85.85722 35001 ft 535 kts 104°
2026-05-05 02:45 34.23784 -85.77095 35006 ft 539 kts 104°
2026-05-05 02:45 34.21519 -85.68449 34998 ft 540 kts 104°
2026-05-05 02:46 34.19251 -85.59803 35001 ft 540 kts 104°
2026-05-05 02:46 34.16970 -85.51179 35003 ft 540 kts 104°
2026-05-05 02:47 34.14682 -85.42546 35023 ft 539 kts 104°
2026-05-05 02:47 34.12449 -85.33974 34983 ft 530 kts 103°
2026-05-05 02:48 34.10259 -85.25477 34888 ft 530 kts 104°
2026-05-05 02:48 34.09148 -85.21219 33769 ft 538 kts 104°
2026-05-05 02:48 34.08020 -85.16903 32822 ft 538 kts 105°
2026-05-05 02:48 34.06902 -85.12634 32108 ft 531 kts 105°
2026-05-05 02:49 34.05655 -85.08465 31360 ft 527 kts 114°
2026-05-05 02:49 34.03847 -85.04649 30608 ft 521 kts 127°
2026-05-05 02:49 34.02325 -85.02443 30169 ft 513 kts 136°
2026-05-05 02:49 33.99726 -84.99567 29308 ft 505 kts 142°
2026-05-05 02:50 33.97044 -84.96830 28201 ft 505 kts 142°
2026-05-05 02:50 33.94357 -84.94095 27077 ft 505 kts 142°
2026-05-05 02:50 33.91686 -84.91352 25943 ft 505 kts 142°
2026-05-05 02:50 33.89017 -84.88598 24817 ft 505 kts 141°
2026-05-05 02:51 33.86353 -84.85835 23809 ft 504 kts 141°
2026-05-05 02:51 33.83710 -84.83093 22952 ft 498 kts 141°
2026-05-05 02:51 33.81105 -84.80396 21902 ft 490 kts 142°
2026-05-05 02:51 33.78536 -84.77738 20964 ft 483 kts 141°
2026-05-05 02:52 33.76188 -84.74888 20097 ft 479 kts 130°
2026-05-05 02:52 33.74444 -84.71510 19165 ft 475 kts 116°
2026-05-05 02:52 33.73438 -84.67769 18308 ft 469 kts 102°
2026-05-05 02:52 33.73162 -84.63905 17281 ft 461 kts 91°
2026-05-05 02:53 33.73190 -84.60074 16197 ft 455 kts 90°
2026-05-05 02:53 33.73230 -84.56305 15237 ft 448 kts 90°
2026-05-05 02:53 33.73253 -84.52607 14616 ft 436 kts 90°
2026-05-05 02:53 33.73264 -84.49046 14257 ft 416 kts 90°
2026-05-05 02:54 33.73275 -84.45663 13976 ft 395 kts 91°
2026-05-05 02:54 33.73279 -84.42448 13715 ft 376 kts 91°
2026-05-05 02:54 33.73281 -84.39370 13460 ft 359 kts 91°
2026-05-05 02:54 33.73286 -84.36441 13161 ft 344 kts 91°
2026-05-05 02:55 33.73291 -84.33634 12883 ft 329 kts 91°
2026-05-05 02:55 33.73291 -84.30940 12566 ft 317 kts 91°
2026-05-05 02:55 33.73293 -84.28296 11975 ft 316 kts 91°
2026-05-05 02:55 33.73293 -84.25670 11423 ft 313 kts 91°
2026-05-05 02:56 33.73293 -84.23066 10896 ft 310 kts 91°
2026-05-05 02:56 33.73285 -84.20489 10371 ft 308 kts 91°
2026-05-05 02:56 33.73278 -84.17929 9869 ft 304 kts 91°
2026-05-05 02:56 33.73279 -84.15393 9284 ft 303 kts 91°
2026-05-05 02:57 33.73285 -84.12877 8762 ft 299 kts 91°
2026-05-05 02:57 33.73296 -84.10388 8229 ft 297 kts 91°
2026-05-05 02:57 33.73302 -84.07921 7678 ft 295 kts 91°
2026-05-05 02:57 33.73308 -84.05477 7251 ft 289 kts 91°
2026-05-05 02:58 33.73299 -84.03108 6947 ft 279 kts 96°
2026-05-05 02:58 33.72845 -84.00885 6766 ft 272 kts 118°
2026-05-05 02:58 33.71772 -83.99126 6635 ft 253 kts 141°
2026-05-05 02:58 33.70351 -83.98017 6412 ft 238 kts 161°
2026-05-05 02:59 33.68764 -83.97572 6145 ft 233 kts 179°
2026-05-05 02:59 33.67174 -83.97760 5868 ft 229 kts 196°
2026-05-05 02:59 33.65726 -83.98521 5597 ft 227 kts 213°
2026-05-05 02:59 33.64557 -83.99778 5325 ft 227 kts 230°
2026-05-05 03:00 33.63767 -84.01413 5057 ft 228 kts 247°
2026-05-05 03:00 33.63435 -84.03275 4764 ft 230 kts 264°
2026-05-05 03:00 33.63542 -84.05197 4455 ft 232 kts 277°
2026-05-05 03:00 33.63974 -84.07070 4137 ft 233 kts 283°
2026-05-05 03:01 33.64419 -84.08935 3998 ft 229 kts 279°
2026-05-05 03:01 33.64705 -84.10727 3979 ft 210 kts 273°
2026-05-05 03:01 33.64849 -84.12466 3983 ft 209 kts 269°
2026-05-05 03:01 33.64912 -84.14205 3994 ft 208 kts 268°
2026-05-05 03:02 33.64947 -84.15941 4000 ft 208 kts 266°
2026-05-05 03:02 33.64953 -84.17662 4018 ft 208 kts 266°
2026-05-05 03:02 33.64954 -84.19402 4032 ft 207 kts 266°
2026-05-05 03:02 33.64954 -84.21134 4028 ft 208 kts 266°
2026-05-05 03:03 33.64954 -84.22870 3861 ft 207 kts 266°
2026-05-05 03:03 33.64954 -84.24598 3663 ft 206 kts 266°
2026-05-05 03:03 33.64955 -84.26181 3443 ft 174 kts 265°
2026-05-05 03:03 33.64954 -84.27578 3193 ft 164 kts 264°
2026-05-05 03:04 33.64954 -84.28943 2958 ft 163 kts 264°
2026-05-05 03:04 33.64953 -84.30301 2750 ft 162 kts 265°
2026-05-05 03:04 33.64953 -84.31657 2542 ft 162 kts 265°
2026-05-05 03:04 33.64953 -84.32990 2333 ft 162 kts 264°
2026-05-05 03:05 33.64953 -84.34353 2118 ft 161 kts 264°
2026-05-05 03:05 33.64953 -84.35679 1908 ft 161 kts 265°
2026-05-05 03:05 33.64953 -84.36998 1685 ft 151 kts 265°
2026-05-05 03:05 33.64953 -84.38210 1478 ft 145 kts 267°
2026-05-05 03:06 33.64957 -84.39412 1316 ft 142 kts 268°
2026-05-05 03:06 33.64953 -84.40596 1110 ft 141 kts 268°
2026-05-05 03:06 33.64954 -84.41739 1012 ft 124 kts 270°
2026-05-05 03:06 33.64953 -84.42445 1012 ft 61 kts 269°
2026-05-05 03:07 33.64874 -84.42802 1012 ft 28 kts 245°
2026-05-05 03:07 33.64794 -84.42999 1012 ft 16 kts 256°
2026-05-05 03:07 33.64758 -84.43126 1012 ft 18 kts 201°
2026-05-05 03:07 33.64643 -84.43173 1013 ft 19 kts 243°
2026-05-05 03:08 33.64580 -84.43315 1013 ft 20 kts 240°
2026-05-05 03:08 33.64541 -84.43474 1012 ft 21 kts 272°
2026-05-05 03:08 33.64542 -84.43652 1012 ft 22 kts 268°
2026-05-05 03:08 33.64487 -84.43755 1012 ft 15 kts 221°
2026-05-05 03:09 33.64388 -84.43788 1012 ft 15 kts 181°
2026-05-05 03:09 33.64346 -84.43809 1012 ft 8 kts 248°
2026-05-05 03:09 33.64343 -84.43867 1012 ft 4 kts 271°
2026-05-05 03:09 33.64343 -84.43871 1012 ft 0 kts 270°